Location: Newark
(25.4800°N, 85.7200°E)
Time: 09:37:36
(UTC+00:00)

Explorer 11/Cluster Stage 4 - Pass Details

Date: 28 August 2019
Orbit: 467 x 1259 km, 28.8° (Epoch: 20 October)

Event Time Altitude Azimuth Distance (km) Brightness Sun altitude
Rises 23:57:00 0° 211° (SSW) 3,202 9.3 -0.6°
Reaches altitude 10° 23:59:47 10° 196° (SSW) 2,417 8.8 0.0°
Maximum altitude 00:04:16 23° 145° (SE) 1,887 8.9 1.0°
Drops below altitude 10° 00:09:28 10° 97° (E) 2,861 11.2 2.2°
Sets 00:13:05 0° 84° (E) 3,951 13.4 3.0°
